Date String (YYYY-MM-DD hh:mm:ss) UTC,Instrument flags,Ambient pressure (hPa),Sample flow (lpm),Bypass flow (lpm),Sample temperature (°C),Ambient temperature (°C),ASC tube jacket temperature (°C),LED temperature (°C),Box temperature (°C),Sample RH (%),Span deviation,Mass concentration (μg/m³),Mass concentration (μg/m³),Mass concentration (μg/m³)
DateTimeUTC,F1_M11,P_M11,Q1_M11,Q2_M11,T1_M11,T2_M11,T3_M11,T4_M11,T5_M11,U1_M11,ZSPAN_M11,X2_M11,X0_M11,X1_M11
2022-09-04 04:00:00,,0832.6,5.00,0.00,29.8,26.7,00.0,38.5,31.4,21.0,0000.0,0006.26,0014.01,0005.51
2022-09-04 04:01:00,,0832.6,5.01,0.00,29.7,26.3,00.0,38.4,31.4,21.0,0000.0,0006.25,0015.07,0005.50
2022-09-04 04:02:00,,0832.6,5.00,0.00,29.6,26.4,00.0,38.4,31.3,21.1,0000.0,0006.29,0015.55,0005.53
2022-09-04 04:03:00,,0832.6,5.00,0.00,29.6,26.8,00.0,38.3,31.2,21.2,0000.0,0006.30,0015.61,0005.53
2022-09-04 04:04:00,,0832.6,4.99,0.00,29.5,27.2,00.0,38.3,31.3,21.2,0000.0,0006.30,0015.56,0005.54
2022-09-04 04:05:00,,0832.6,5.00,0.00,29.5,27.5,00.0,38.3,31.3,21.2,0000.0,0006.33,0015.55,0005.54
2022-09-04 04:06:00,,0832.6,5.01,0.00,29.5,27.8,00.0,38.3,31.4,21.2,0000.0,0006.36,0015.92,0005.54
2022-09-04 04:07:00,,0832.6,5.00,0.00,29.6,28.0,00.0,38.3,31.4,21.2,0000.0,0006.40,0015.51,0005.54
2022-09-04 04:08:00,,0832.6,4.99,0.00,29.6,28.2,00.0,38.3,31.4,21.1,0000.0,0006.47,0015.52,0005.54
2022-09-04 04:09:00,,0832.6,5.01,0.00,29.6,28.4,00.0,38.3,31.5,21.1,0000.0,0006.54,0015.41,0005.54
2022-09-04 04:10:00,,0832.6,4.99,0.00,29.6,28.5,00.0,38.3,31.5,21.0,0000.0,0006.54,0014.96,0005.56
2022-09-04 04:11:00,,0832.6,5.00,0.00,29.7,28.6,00.0,38.3,31.6,20.9,0000.0,0006.55,0014.62,0005.58
2022-09-04 04:12:00,,0832.7,5.00,0.00,29.7,28.7,00.0,38.4,31.6,20.9,0000.0,0006.60,0013.79,0005.60
2022-09-04 04:13:00,,0832.7,4.99,0.00,29.7,28.8,00.0,38.4,31.7,20.9,0000.0,0006.62,0012.95,0005.62
2022-09-04 04:14:00,,0832.7,5.00,0.00,29.8,28.9,00.0,38.4,31.7,20.9,0000.0,0006.65,0012.53,0005.64
2022-09-04 04:15:00,,0832.7,5.01,0.00,29.8,29.0,00.0,38.4,31.8,20.9,0000.0,0006.65,0012.62,0005.66
2022-09-04 04:16:00,,0832.7,5.01,0.00,29.9,28.8,00.0,38.5,31.8,20.8,0000.0,0006.66,0012.65,0005.68
2022-09-04 04:17:00,,0832.7,4.99,0.00,29.8,27.4,00.0,38.5,31.6,20.8,0000.0,0006.64,0012.15,0005.70
2022-09-04 04:18:00,,0832.7,5.00,0.00,29.8,26.3,00.0,38.4,31.5,20.9,0000.0,0006.59,0011.74,0005.72
2022-09-04 04:19:00,,0832.7,5.00,0.00,29.7,26.3,00.0,38.4,31.4,21.0,0000.0,0006.56,0011.64,0005.74
2022-09-04 04:20:00,,0832.7,5.01,0.00,29.6,26.5,00.0,38.3,31.3,21.1,0000.0,0006.55,0012.52,0005.77
2022-09-04 04:21:00,,0832.7,5.01,0.00,29.6,26.9,00.0,38.3,31.3,21.3,0000.0,0006.57,0013.47,0005.77
2022-09-04 04:22:00,,0832.7,4.99,0.00,29.5,27.3,00.0,38.3,31.3,21.4,0000.0,0006.54,0013.75,0005.76
2022-09-04 04:23:00,,0832.7,5.00,0.00,29.5,27.6,00.0,38.3,31.3,21.4,0000.0,0006.50,0013.47,0005.75
2022-09-04 04:24:00,,0832.7,5.01,0.00,29.5,27.9,00.0,38.3,31.4,21.4,0000.0,0006.47,0013.22,0005.76
2022-09-04 04:25:00,,0832.7,4.99,0.00,29.6,28.1,00.0,38.3,31.4,21.4,0000.0,0006.43,0013.72,0005.76
2022-09-04 04:26:00,,0832.7,5.00,0.00,29.6,28.2,00.0,38.3,31.4,21.4,0000.0,0006.44,0013.80,0005.77
2022-09-04 04:27:00,,0832.7,4.99,0.00,29.6,28.4,00.0,38.3,31.5,21.5,0000.0,0006.43,0013.07,0005.78
2022-09-04 04:28:00,,0832.7,5.01,0.00,29.6,28.5,00.0,38.3,31.5,21.4,0000.0,0006.41,0012.72,0005.77
2022-09-04 04:29:00,,0832.7,4.98,0.00,29.7,28.6,00.0,38.3,31.6,21.3,0000.0,0006.43,0013.01,0005.78
2022-09-04 04:30:00,,0832.7,5.02,0.00,29.7,28.7,00.0,38.4,31.6,21.3,0000.0,0006.45,0013.82,0005.77
2022-09-04 04:31:00,,0832.7,4.99,0.00,29.7,28.8,00.0,38.4,31.7,21.2,0000.0,0006.44,0013.32,0005.75
2022-09-04 04:32:00,,0832.7,5.02,0.00,29.8,28.8,00.0,38.4,31.7,21.2,0000.0,0006.43,0012.17,0005.77
2022-09-04 04:33:00,,0832.7,4.99,0.00,29.8,28.9,00.0,38.4,31.7,21.2,0000.0,0006.44,0011.78,0005.78
2022-09-04 04:34:00,,0832.7,5.02,0.00,29.9,28.8,00.0,38.5,31.8,21.1,0000.0,0006.46,0011.89,0005.80
2022-09-04 04:35:00,,0832.6,5.00,0.00,29.8,27.7,00.0,38.5,31.7,21.3,0000.0,0006.47,0012.56,0005.81
2022-09-04 04:36:00,,0832.7,5.00,0.00,29.8,27.0,00.0,38.4,31.6,21.4,0000.0,0006.55,0012.40,0005.82
2022-09-04 04:37:00,,0832.6,4.99,0.00,29.8,27.0,00.0,38.4,31.5,21.4,0000.0,0006.57,0012.50,0005.83
2022-09-04 04:38:00,,0832.6,5.00,0.00,29.7,27.2,00.0,38.4,31.4,21.5,0000.0,0006.58,0013.13,0005.83
2022-09-04 04:39:00,,0832.6,5.00,0.00,29.7,27.5,00.0,38.4,31.4,21.6,0000.0,0006.60,0013.16,0005.84
2022-09-04 04:40:00,,0832.6,5.01,0.00,29.7,27.8,00.0,38.4,31.4,21.6,0000.0,0006.59,0013.06,0005.83
2022-09-04 04:41:00,,0832.6,5.01,0.00,29.7,28.1,00.0,38.4,31.5,21.6,0000.0,0006.55,0012.16,0005.83
2022-09-04 04:42:00,,0832.6,5.01,0.00,29.7,28.3,00.0,38.4,31.6,21.5,0000.0,0006.50,0012.20,0005.83
2022-09-04 04:43:00,,0832.7,4.99,0.00,29.7,28.4,00.0,38.4,31.6,21.5,0000.0,0006.49,0013.73,0005.82
2022-09-04 04:44:00,,0832.6,5.01,0.00,29.7,28.6,00.0,38.4,31.6,21.5,0000.0,0006.49,0013.85,0005.80
2022-09-04 04:45:00,,0832.6,5.01,0.00,29.8,28.7,00.0,38.4,31.7,21.4,0000.0,0006.48,0014.27,0005.79
2022-09-04 04:46:00,,0832.7,4.99,0.00,29.8,28.8,00.0,38.5,31.7,21.4,0000.0,0006.46,0013.64,0005.78
2022-09-04 04:47:00,,0832.7,5.02,0.00,29.8,28.9,00.0,38.5,31.7,21.2,0000.0,0006.42,0013.44,0005.77
2022-09-04 04:48:00,,0832.7,4.99,0.00,29.9,28.9,00.0,38.5,31.8,21.2,0000.0,0006.41,0013.45,0005.76
2022-09-04 04:49:00,,0832.7,5.00,0.00,29.9,29.0,00.0,38.5,31.9,21.3,0000.0,0006.39,0012.76,0005.74
2022-09-04 04:50:00,,0832.7,4.99,0.00,29.9,28.4,00.0,38.6,31.8,21.4,0000.0,0006.42,0012.81,0005.75
2022-09-04 04:51:00,,0832.7,5.01,0.00,29.9,26.9,00.0,38.5,31.6,21.4,0000.0,0006.48,0012.91,0005.77
2022-09-04 04:52:00,,0832.7,4.99,0.00,29.8,26.3,00.0,38.5,31.5,21.5,0000.0,0006.56,0013.13,0005.80
2022-09-04 04:53:00,,0832.7,5.02,0.00,29.7,26.4,00.0,38.4,31.4,21.5,0000.0,0006.61,0013.16,0005.82
2022-09-04 04:54:00,,0832.7,4.99,0.00,29.6,26.7,00.0,38.4,31.2,21.6,0000.0,0006.63,0011.47,0005.84
2022-09-04 04:55:00,,0832.7,4.99,0.00,29.6,27.1,00.0,38.4,31.3,21.7,0000.0,0006.66,0011.42,0005.86
2022-09-04 04:56:00,,0832.7,5.01,0.00,29.6,27.4,00.0,38.3,31.3,21.7,0000.0,0006.66,0011.15,0005.86
2022-09-04 04:57:00,,0832.7,5.00,0.00,29.6,27.7,00.0,38.3,31.4,21.7,0000.0,0006.70,0011.31,0005.86
2022-09-04 04:58:00,,0832.7,5.01,0.00,29.6,28.0,00.0,38.3,31.4,21.7,0000.0,0006.68,0011.33,0005.86
2022-09-04 04:59:00,,0832.7,4.99,0.00,29.6,28.1,00.0,38.4,31.4,21.7,0000.0,0006.71,0011.56,0005.87
